[[{"header":{"parameterUnit":"m.s-1","parameterCategory":1,"la1":30.2991,"la2":30.254,"lo1":-89.0895,"lo2":-89.0444,"dy":0.0017,"dx":0.0017,"nx":28,"ny":28,"refTime":"2025-12-26T03:00:00:Z","depth":0,"parameterNumber":2,"parameterNumberName":"U-component_of_WINDS"},"data":[0,0,0,0,0,0,0,0,0,0,0,0,0,0,0,0,0,0,0,0,0,0,0,0,0,0,0,0,0,0,0,0,0,0,0,0,0,0,0,0,0,0,0,0,0,0,0,0,0,0,0,0,0,0,0,0,0,0,1.3163,1.3164,0,1.3249,1.325,1.325,1.3247,1.3246,1.3244,1.3243,1.3336,1.3339,1.3343,0,0,0,0,0,0,0,0,0,0,0,0,0,1.3002,1.3005,1.3163,1.3164,1.3165,1.3248,1.325,1.3251,1.3247,1.3246,1.3244,1.3243,1.3335,1.3339,1.3343,0,0,0,0,0,0,0,0,0,0,0,0,0,1.3078,1.3006,1.3163,1.3173,1.3175,1.3248,1.325,1.3251,1.3247,1.3246,1.3244,1.3242,1.3333,1.3339,1.3344,1.3414,0,0,1.336,1.3363,0,0,0,0,0,0,0,0,1.3074,1.3084,1.3171,1.3173,1.3175,1.3235,1.3227,1.3306,1.3248,1.322,1.3243,1.3241,1.3304,1.3312,1.3332,1.3418,1.3422,1.3361,1.3364,1.3366,1.3368,0,0,0,0,0,0,0,1.3069,1.3081,1.3197,1.3172,1.3175,1.3175,1.3184,1.3242,1.3272,1.3222,1.3222,1.3232,1.3305,1.3327,1.3334,1.3423,1.3361,1.3366,1.3369,1.3371,1.3572,1.3574,0,0,0,0,0,0,1.306,1.3076,1.3194,1.32,1.3119,1.318,1.319,1.3218,1.3271,1.3277,1.3234,1.3232,1.3318,1.3328,1.3337,1.3424,1.3366,1.3371,1.3375,1.357,1.3573,1.3575,0,0,0,0,0,0,1.3057,1.3071,1.3191,1.3138,1.3153,1.3184,1.3216,1.322,1.3242,1.3279,1.3285,1.325,1.3317,1.333,1.3395,1.3427,1.3374,1.3379,1.3568,1.3571,1.3574,1.3596,0,0,0,0,0,0,1.3052,1.307,1.3095,1.3138,1.3156,1.3245,1.3218,1.3223,1.3251,1.3249,1.3296,1.3302,1.3317,1.3387,1.34,1.3433,1.3383,1.3565,1.3569,1.3573,1.3592,1.3599,1.3605,0,0,0,0,0,1.3047,1.3099,1.3097,1.3111,1.3188,1.3247,1.3257,1.3271,1.3253,1.328,1.3304,1.3301,1.3421,1.3393,1.3408,1.3444,1.3563,1.3568,1.3573,1.359,1.3598,1.3605,0,0,0,0,0,0,1.3061,1.3105,1.3103,1.317,1.3205,1.3246,1.3281,1.328,1.3321,1.3318,1.3336,1.3346,1.3412,1.3434,1.3403,1.3515,1.349,1.3498,1.3498,1.3506,1.3512,1.3506,1.3388,0,0,0,0,0,1.3071,1.3114,1.3151,1.3207,1.3224,1.3249,1.3275,1.3283,1.332,1.3335,1.3364,1.3402,1.3448,1.3478,1.3522,1.3595,1.3606,1.3627,1.3633,1.3639,1.3646,1.3687,1.3697,1.3591,1.3591,1.3591,0,0,1.3095,1.3124,1.315,1.3211,1.3238,1.3283,1.3262,1.331,1.3344,1.3343,1.3406,1.3428,1.3472,1.3541,1.3573,1.3562,1.3677,1.3645,1.3648,1.3653,1.3693,1.3703,1.3712,1.3594,1.3593,1.3593,0,0,1.316,1.3186,1.3236,1.3264,1.3305,1.3321,1.3333,1.3375,1.3389,1.3452,1.3452,1.3494,1.3573,1.3604,1.363,1.3707,1.3706,1.3721,1.3755,1.3795,1.3804,1.3811,1.384,1.385,1.3728,1.3728,1.3728,0,1.3184,1.325,1.3262,1.3311,1.3338,1.3337,1.3389,1.3416,1.3471,1.349,1.3476,1.3575,1.3604,1.3681,1.37,1.3721,1.3736,1.3716,1.3801,1.3809,1.3816,1.3844,1.3854,1.3729,1.3729,1.3729,1.3729,0,1.3279,1.3325,1.336,1.3411,1.3443,1.3493,1.3513,1.3544,1.3549,1.3567,1.3632,1.3667,1.3718,1.3737,1.3743,1.3815,1.3807,1.3797,1.3773,1.3828,1.3854,1.3865,1.3732,1.3731,1.3731,1.373,0,0,1.3356,1.3412,1.3425,1.3449,1.3494,1.3531,1.3582,1.3631,1.3657,1.3695,1.3739,1.3805,1.3796,1.3826,1.3835,1.387,1.393,1.3856,1.3857,1.387,1.4014,1.4022,1.4034,1.3929,1.3931,1.3933,1.4011,0,1.3427,1.3515,1.3527,1.3606,1.3649,1.3649,1.3693,1.3727,1.3746,1.3787,1.3808,1.3855,1.3839,1.3857,1.3891,1.3916,1.396,1.391,1.3973,1.3975,1.3963,1.4047,1.4056,1.4128,1.4021,1.4023,1.4024,0,1.3521,1.356,1.3643,1.3683,1.3701,1.3741,1.3787,1.3825,1.3864,1.3875,1.3908,1.3913,1.3968,1.394,1.4016,1.3982,1.4008,1.4024,1.4027,1.4035,1.4003,1.4058,1.4151,1.4162,1.404,1.4039,1.4037,0,1.3571,1.3644,1.3703,1.3723,1.3771,1.3798,1.382,1.3857,1.3886,1.3927,1.3946,1.3993,1.4019,1.4056,1.4075,1.4053,1.415,1.4124,1.4163,1.4162,1.4184,1.4183,1.4283,1.4199,1.4199,1.4198,1.4198,0,1.3649,1.37,1.3726,1.3762,1.3819,1.3833,1.389,1.3911,1.3944,1.3986,1.3989,1.4028,1.405,1.4093,1.4108,1.4169,1.4181,1.4193,1.4196,1.4193,1.4192,1.4212,1.4208,1.4201,1.4201,1.42,1.42,0,1.3715,1.3733,1.3798,1.3838,1.3849,1.389,1.3924,1.3961,1.3979,1.4032,1.4045,1.4074,1.4125,1.4146,1.421,1.422,1.429,1.429,1.4277,1.4278,1.4316,1.4313,1.4434,1.4451,1.4354,1.4355,1.4356,0,1.3764,1.3803,1.3846,1.3874,1.3896,1.394,1.3969,1.3985,1.4015,1.4063,1.4094,1.4144,1.4185,1.4267,1.4295,1.4344,1.4345,1.4384,1.4353,1.4348,1.4347,1.4345,1.435,1.439,1.4391,1.4392,1.4393,0,1.385,1.3857,1.3898,1.3943,1.3977,1.4013,1.4049,1.4072,1.4093,1.4128,1.4179,1.4211,1.4274,1.4325,1.4376,1.44,1.4401,1.4402,1.4414,1.4412,1.4403,1.441,1.4294,1.44,1.4399,1.4399,1.4398,1.4398,1.3909,1.3944,1.398,1.4026,1.4054,1.4088,1.4124,1.4146,1.4188,1.424,1.4247,1.4303,1.4342,1.4409,1.4435,1.448,1.447,1.4487,1.4491,1.4496,1.4499,1.4395,1.4489,1.4489,1.4488,1.4488,1.4488,0,1.3996,1.4019,1.4061,1.411,1.4147,1.4142,1.4182,1.4213,1.4261,1.4297,1.4337,1.4397,1.4446,1.4477,1.4528,1.4557,1.4559,1.457,1.4569,1.4575,1.4504,1.4489,1.4568,1.4568,1.4568,1.4568,1.4568,1.4568,1.4046,1.4105,1.4117,1.419,1.4213,1.4266,1.4289,1.4321,1.4349,1.4415,1.4455,1.4475,1.4509,1.4562,1.4608,1.4616,1.4635,1.4647,1.4655,1.4588,1.458,1.4572,1.4558,1.465,1.4651,1.4722,1.4723,1.4723]},{"header":{"parameterUnit":"m.s-1","parameterCategory":1,"la1":30.2991,"la2":30.254,"lo1":-89.0895,"lo2":-89.0444,"dy":0.0017,"dx":0.0017,"nx":28,"ny":28,"refTime":"2025-12-26T03:00:00:Z","depth":0,"parameterNumber":3,"parameterNumberName":"V-component_of_WINDS"},"data":[0,0,0,0,0,0,0,0,0,0,0,0,0,0,0,0,0,0,0,0,0,0,0,0,0,0,0,0,0,0,0,0,0,0,0,0,0,0,0,0,0,0,0,0,0,0,0,0,0,0,0,0,0,0,0,0,0,0,4.6616,4.6617,0,4.6788,4.679,4.6792,4.6802,4.6801,4.6799,4.6797,4.6968,4.6974,4.6981,0,0,0,0,0,0,0,0,0,0,0,0,0,4.6288,4.6294,4.6615,4.6618,4.662,4.6788,4.679,4.6793,4.6803,4.68,4.6798,4.6796,4.6966,4.6973,4.6981,0,0,0,0,0,0,0,0,0,0,0,0,0,4.6442,4.6296,4.6615,4.6645,4.665,4.6788,4.679,4.6793,4.6803,4.68,4.6797,4.6795,4.6963,4.6973,4.6982,4.71,0,0,4.7011,4.7016,0,0,0,0,0,0,0,0,4.6434,4.6454,4.6639,4.6643,4.6649,4.6771,4.6738,4.6896,4.6804,4.6745,4.6797,4.6793,4.6904,4.6919,4.6957,4.7108,4.7115,4.7012,4.7018,4.7022,4.7025,0,0,0,0,0,0,0,4.6423,4.6447,4.6684,4.6641,4.6647,4.6648,4.6667,4.6768,4.6839,4.675,4.6751,4.6772,4.6907,4.6948,4.6961,4.7118,4.7012,4.702,4.7026,4.703,4.7373,4.7377,0,0,0,0,0,0,4.6407,4.6438,4.6678,4.6689,4.6532,4.6656,4.6677,4.6735,4.6838,4.6851,4.6774,4.6771,4.6933,4.695,4.6967,4.7113,4.7022,4.7031,4.7037,4.737,4.7374,4.7378,0,0,0,0,0,0,4.64,4.6429,4.6671,4.6564,4.6595,4.6665,4.6729,4.6739,4.6781,4.6856,4.6868,4.6804,4.6932,4.6954,4.7067,4.7119,4.7035,4.7044,4.7366,4.7371,4.7376,4.7405,0,0,0,0,0,0,4.6391,4.6426,4.6473,4.6565,4.6601,4.677,4.6733,4.6745,4.6798,4.6797,4.6887,4.6899,4.6931,4.7053,4.7077,4.7131,4.7052,4.7362,4.7368,4.7374,4.74,4.741,4.7419,0,0,0,0,0,4.6379,4.6473,4.6475,4.6504,4.6661,4.6773,4.6793,4.683,4.6803,4.685,4.6897,4.6897,4.7109,4.7065,4.7092,4.7149,4.7359,4.7367,4.7374,4.7395,4.7408,4.7419,0,0,0,0,0,0,4.6384,4.6486,4.649,4.6616,4.6686,4.6775,4.6836,4.6842,4.692,4.6915,4.6954,4.6974,4.7087,4.7129,4.7077,4.7268,4.7231,4.7244,4.7238,4.7251,4.726,4.7249,4.706,0,0,0,0,0,4.64,4.6484,4.6568,4.6671,4.6706,4.6765,4.6815,4.6837,4.691,4.6939,4.6995,4.7065,4.7147,4.7201,4.7281,4.7405,4.7425,4.7457,4.7467,4.7475,4.7487,4.7556,4.7571,4.7403,4.7403,4.7403,0,0,4.6433,4.6499,4.655,4.6674,4.6731,4.6816,4.679,4.6881,4.6944,4.6952,4.7064,4.7107,4.7187,4.7307,4.7362,4.7345,4.7537,4.7485,4.749,4.7498,4.7565,4.7581,4.7595,4.7408,4.7407,4.7406,0,0,4.6538,4.6597,4.669,4.6748,4.6835,4.6873,4.6895,4.6983,4.7013,4.7126,4.7134,4.7208,4.7349,4.7406,4.7453,4.7579,4.7581,4.7603,4.7656,4.7722,4.7736,4.7748,4.7793,4.7809,4.7614,4.7614,4.7614,0,4.6569,4.67,4.6737,4.6829,4.6883,4.6896,4.699,4.7043,4.715,4.7187,4.7166,4.7344,4.7399,4.7532,4.7563,4.76,4.7626,4.7594,4.7731,4.7743,4.7755,4.7799,4.7816,4.7616,4.7616,4.7616,4.7616,0,4.6733,4.6823,4.6888,4.6994,4.7055,4.7147,4.7197,4.7253,4.7269,4.7308,4.7422,4.7488,4.7582,4.7614,4.763,4.775,4.7737,4.7723,4.7686,4.7773,4.7815,4.7832,4.762,4.7619,4.7618,4.7618,0,0,4.6848,4.6974,4.6997,4.7046,4.7142,4.7211,4.7303,4.7397,4.7445,4.7517,4.7595,4.7714,4.7702,4.7756,4.7777,4.7835,4.7931,4.7815,4.7817,4.7835,4.8068,4.808,4.8099,4.7932,4.7936,4.7938,4.8062,0,4.6966,4.7133,4.7168,4.7312,4.7395,4.7408,4.7487,4.7554,4.7593,4.7667,4.7709,4.7793,4.7771,4.7803,4.7861,4.7908,4.7979,4.7899,4.8005,4.8008,4.7987,4.8121,4.8133,4.8247,4.8079,4.8081,4.8083,0,4.7126,4.7205,4.7357,4.7443,4.7479,4.7551,4.7639,4.7711,4.7786,4.7809,4.7869,4.7884,4.7978,4.7935,4.8065,4.8009,4.8054,4.8083,4.8088,4.8101,4.8053,4.8139,4.8284,4.8302,4.811,4.8107,4.8106,0,4.7196,4.734,4.7451,4.7491,4.7593,4.7644,4.7688,4.776,4.7814,4.789,4.7925,4.801,4.8057,4.8121,4.8158,4.8123,4.8285,4.8245,4.8307,4.8306,4.8343,4.834,4.8499,4.8368,4.8368,4.8367,4.8367,0,4.7325,4.7418,4.7484,4.7552,4.7656,4.7695,4.7796,4.7839,4.7903,4.7978,4.7992,4.8062,4.8105,4.8181,4.8209,4.8313,4.8333,4.8354,4.8361,4.8355,4.8352,4.8386,4.838,4.8372,4.8371,4.837,4.8369,0,4.7423,4.7471,4.7592,4.7679,4.7703,4.7776,4.7849,4.7914,4.7952,4.8047,4.8071,4.8131,4.822,4.8263,4.8373,4.8392,4.851,4.851,4.8485,4.8489,4.8549,4.8543,4.8737,4.8764,4.8613,4.8614,4.8616,0,4.7503,4.7576,4.767,4.7723,4.7769,4.7853,4.7909,4.7948,4.8005,4.8095,4.8149,4.824,4.8315,4.8456,4.8508,4.8592,4.8595,4.8657,4.8608,4.8599,4.8598,4.8595,4.8602,4.8667,4.8668,4.8669,4.867,0,4.7641,4.7661,4.7742,4.7831,4.7898,4.7969,4.8039,4.8081,4.8131,4.8193,4.8286,4.8344,4.8457,4.8547,4.8634,4.8677,4.8682,4.8685,4.8704,4.8699,4.8683,4.8694,4.8512,4.8681,4.868,4.8679,4.8679,4.8678,4.7734,4.7799,4.7876,4.7966,4.8023,4.8088,4.8154,4.8201,4.828,4.8377,4.8394,4.8493,4.8564,4.8682,4.8728,4.8804,4.879,4.8817,4.8825,4.8831,4.8836,4.8669,4.882,4.8819,4.8819,4.8819,4.8819,0,4.7874,4.7924,4.8006,4.8105,4.8175,4.8174,4.8252,4.831,4.8397,4.8464,4.8538,4.8644,4.873,4.8788,4.8876,4.8925,4.893,4.8947,4.8945,4.8955,4.8843,4.8818,4.8942,4.8942,4.8942,4.8942,4.8942,4.8942,4.7955,4.8066,4.8095,4.8233,4.8282,4.8381,4.8425,4.8485,4.8539,4.8658,4.873,4.8768,4.8831,4.8923,4.9001,4.9016,4.9048,4.9066,4.908,4.8975,4.8962,4.895,4.8928,4.9072,4.9072,4.9186,4.9187,4.9188]}]]